Find Beidou DW 52

NORAD ID: 44864 Int'l Des: 2019-090 Owner: CNSA Country: CN Constellation: BeiDou operational
MEOCIRCULAR

現在のビュー

3D地球を読み込み中...

About Beidou DW 52

Beidou DW 52 (NORAD 44864) is a BeiDou constellation satellite launched Dec 16, 2019 by CNSA of CN. It operates in MEO, CIRCULAR orbit with a mass of 1014.00 kg.

Beidou DW 52について

説明を読み込み中...

次回通過

Passes for default location (London). Set your location on the main map for personalized predictions.

高度履歴

Loading altitude history...

軌道要素

1 44864U 19090A 26165.52330763 -.00000053 00000-0 00000+0 0 9992
2 44864 56.5562 62.8792 0017922 297.9457 249.9520 1.86231333 44183
Epoch: Jun 14, 2026 • Age: 46 hours

現在のステータス

高度 21536.4 km
速度 3.78 km/s
衛星直下点 29.26°N, 19.94°E
打ち上げ日 Dec 16, 2019
運用期間 6.4 years
タイプ navigation

打ち上げグループ

Unknown Vehicle • BeiDou Launch 42 • 2 satellites

技術仕様

分類 Payload
質量 1014.00 kg
乾燥質量 850.00 kg
総質量 1014.00 kg
長さ 2.20 m
直径 1.70 m
スパン 10.00 m
形状 Box + 2 Pan
製造者 CAST
バスタイプ BD-3M
フェーズステータス In Orbit
所有者/国 CNSA/CN

Most Searched